Probability
0 3 29 39 39 48 48 52 48 52 52 52 42 52 55 55 52 52 55 58 55 52 39 35 29 35 35 35 23 23 23 26 26 23 19 16 13 16 13 13 10 0 6
0 0 29 35 39 39 45 42 39 39 39 42 42 39 48 42 42 42 45 42 39 39 35 29 32 35 29 29 23 23 19 19 16 23 19 19 16 13 13 10 10 0 0
0 6 29 32 39 39 39 35 35 39 39 35 39 32 29 26 26 23 29 35 35 32 29 32 35 29 23 23 26 19 16 19 16 13 13 0 3 6 10 10 10 0 0
0 6 23 32 35 35 35 39 32 32 32 26 23 29 13 16 23 26 23 23 19 26 26 29 32 32 29 23 23 19 19 19 13 13 0 0 0 6 6 6 3 3 0
0 6 23 32 32 32 32 32 26 29 29 19 13 19 16 13 13 19 16 13 13 16 29 29 26 23 23 19 19 16 23 19 13 6 0 0 0 0 10 6 3 3 3
0 3 16 29 29 29 29 29 26 26 29 26 16 16 16 10 10 10 16 13 13 16 16 16 19 13 16 19 19 19 19 19 3 0 0 0 0 0 6 6 3 3 0
0 3 13 29 29 29 29 29 29 23 26 23 19 16 13 10 6 6 13 16 19 13 19 13 13 6 10 19 19 19 19 13 3 0 0 0 0 0 6 6 3 3 0
0 3 16 26 26 26 26 26 26 19 19 19 19 16 16 10 6 3 10 10 13 16 6 10 10 6 6 10 13 16 19 6 0 0 0 0 0 0 6 13 6 3 0
0 3 10 19 23 23 23 26 26 16 13 10 10 10 13 6 3 6 6 3 13 13 10 6 6 3 6 6 10 13 10 3 0 0 0 0 0 0 3 10 10 6 3
3 6 6 13 19 16 16 16 13 10 0 0 3 3 0 3 3 6 0 3 10 10 3 3 3 0 3 6 3 3 3 0 0 0 0 0 0 0 6 10 10 6 6
3 3 0 13 13 10 6 3 6 3 0 0 0 0 0 0 0 0 0 3 3 3 3 3 3 0 0 0 3 0 0 0 0 0 0 0 0 6 6 13 10 10 10
3 3 0 3 6 6 6 6 3 3 0 0 0 0 0 0 0 0 0 0 3 0 0 3 3 0 0 0 0 0 0 0 0 0 0 0 0 6 10 10 6 6 10
0 0 0 0 3 6 6 6 3 3 0 0 0 0 0 0 0 0 0 0 0 0 0 0 0 0 0 0 0 0 0 0 0 0 0 0 0 3 10 10 10 10 6
0 0 0 0 0 3 6 3 3 3 0 0 0 0 0 0 0 0 0 0 0 0 0 0 0 0 0 0 0 0 0 0 0 0 0 0 0 3 3 6 10 10 10
0 0 0 0 0 0 0 3 3 3 0 0 0 0 0 0 0 0 0 0 0 0 0 0 0 0 0 0 0 0 0 0 0 0 0 0 0 0 3 3 3 13 16
0 0 0 0 0 0 0 0 0 0 0 0 0 0 0 0 0 0 0 0 0 0 0 0 0 0 0 0 0 0 0 0 0 0 0 0 0 0 3 3 6 6 6
0 0 0 0 0 0 0 0 0 0 3 0 0 0 0 0 0 0 0 0 0 0 0 0 0 0 0 0 0 0 0 0 0 0 0 0 0 0 0 3 10 10 6
0 0 0 0 0 0 0 0 0 0 0 0 0 0 0 0 0 0 0 0 0 0 0 0 0 0 0 0 0 0 0 0 0 0 0 0 0 0 0 0 0 10 6
0 0 0 0 0 0 0 0 0 0 0 0 0 0 0 0 0 0 0 0 0 0 0 0 0 0 0 0 0 0 0 0 0 0 0 0 0 0 0 0 0 0 3
0 0 0 0 0 0 0 0 0 0 0 0 0 0 0 0 0 0 0 0 0 0 0 0 0 0 0 0 0 0 0 0 0 0 0 0 0 0 0 0 0 0 0
0 0 0 0 0 0 0 0 0 0 0 0 0 0 0 0 0 0 0 0 0 0 0 0 0 0 0 0 0 0 0 0 0 0 0 0 0 0 0 0 0 0 0
0 0 0 0 0 0 0 0 0 0 0 0 0 0 0 0 0 0 0 0 0 0 0 0 0 0 0 0 0 0 0 0 0 0 0 0 0 0 0 0 0 0 0
0 0 0 0 0 0 0 0 0 0 0 0 0 0 0 0 0 0 0 0 0 0 0 0 0 0 0 0 0 0 0 0 0 0 0 0 0 0 0 0 0 0 0
0 0 0 0 0 0 0 0 0 0 0 0 0 0 0 0 0 0 0 0 0 0 0 0 0 0 0 0 0 0 0 0 0 0 0 0 0 0 0 0 0 0 0
0 0 0 0 0 0 0 0 0 0 0 0 0 0 0 0 0 0 0 0 0 0 0 0 0 0 0 0 0 0 0 0 0 0 0 0 0 0 0 0 0 0 0
0 0 0 0 0 0 0 0 0 0 0 0 0 0 0 0 0 0 0 0 0 0 0 0 0 0 0 0 0 0 0 0 0 0 0 0 0 0 0 0 0 0 0
Height
5840 5841 5842 5842 5843 5844 5845 5846 5847 5848 5849 5850 5851 5852 5852 5853 5854 5854 5855 5856 5856 5857 5857 5858 5858 5859 5859 5859 5859 5859 5859 5858 5858 5858 5858 5858 5858 5858 5858 5857 5857 5856 5856
5837 5838 5839 5839 5840 5841 5842 5843 5844 5845 5846 5847 5848 5848 5849 5850 5851 5851 5852 5853 5854 5854 5855 5855 5855 5856 5856 5856 5856 5856 5856 5856 5855 5856 5856 5855 5855 5855 5855 5855 5855 5854 5854
5833 5834 5835 5836 5837 5838 5839 5840 5841 5842 5843 5843 5844 5845 5846 5847 5847 5848 5849 5849 5850 5851 5851 5852 5852 5852 5853 5853 5853 5853 5853 5853 5853 5853 5853 5853 5853 5853 5852 5852 5852 5851 5851
5829 5830 5831 5832 5833 5834 5835 5836 5837 5838 5839 5840 5840 5841 5842 5842 5843 5844 5845 5846 5846 5847 5847 5848 5848 5849 5849 5849 5849 5850 5850 5850 5850 5850 5850 5850 5850 5850 5849 5849 5849 5849 5848
5825 5826 5827 5829 5829 5830 5831 5832 5833 5834 5835 5835 5836 5837 5837 5838 5839 5839 5840 5841 5842 5842 5843 5844 5844 5845 5845 5846 5846 5846 5846 5846 5846 5846 5846 5846 5846 5846 5846 5846 5845 5845 5845
5821 5822 5823 5824 5825 5826 5827 5828 5829 5829 5830 5831 5831 5832 5832 5833 5834 5834 5835 5836 5837 5838 5838 5839 5840 5840 5841 5841 5841 5842 5842 5842 5842 5842 5842 5842 5842 5842 5842 5842 5841 5841 5841
5817 5818 5819 5820 5821 5822 5822 5823 5824 5824 5825 5825 5826 5827 5827 5828 5829 5829 5830 5831 5831 5832 5833 5834 5835 5835 5836 5836 5837 5837 5837 5837 5837 5837 5838 5838 5838 5838 5838 5837 5837 5837 5836
5812 5813 5814 5815 5816 5816 5817 5818 5818 5819 5819 5820 5820 5821 5822 5822 5823 5823 5824 5825 5826 5826 5827 5828 5829 5829 5830 5831 5831 5831 5831 5832 5832 5832 5833 5833 5833 5833 5833 5833 5832 5832 5832
5807 5808 5809 5810 5811 5811 5811 5812 5812 5813 5813 5814 5814 5815 5815 5816 5816 5816 5817 5818 5819 5820 5821 5822 5822 5823 5824 5825 5825 5826 5826 5826 5826 5827 5827 5828 5828 5828 5828 5828 5828 5827 5827
5802 5802 5803 5804 5805 5805 5805 5806 5806 5806 5806 5807 5807 5807 5808 5808 5809 5810 5810 5811 5812 5813 5814 5815 5815 5816 5817 5818 5819 5819 5820 5820 5820 5821 5821 5822 5822 5823 5822 5822 5822 5822 5821
5795 5796 5797 5798 5798 5798 5799 5799 5799 5799 5799 5799 5799 5800 5800 5801 5801 5802 5802 5803 5804 5805 5806 5807 5808 5809 5810 5811 5811 5812 5813 5813 5814 5815 5815 5816 5816 5816 5817 5817 5816 5816 5816
5789 5790 5790 5791 5791 5791 5791 5792 5792 5792 5792 5791 5791 5791 5792 5792 5792 5793 5794 5795 5795 5796 5797 5798 5799 5801 5802 5803 5804 5805 5806 5806 5807 5808 5808 5809 5809 5810 5810 5810 5810 5810 5810
5783 5783 5783 5783 5784 5784 5784 5784 5784 5784 5783 5783 5783 5782 5783 5783 5783 5784 5784 5785 5786 5787 5788 5789 5790 5792 5793 5794 5795 5796 5798 5799 5800 5800 5801 5802 5802 5803 5803 5803 5803 5803 5803
5776 5776 5776 5776 5776 5776 5776 5776 5775 5775 5774 5774 5773 5773 5773 5773 5774 5774 5775 5775 5776 5777 5778 5779 5781 5782 5784 5785 5786 5788 5789 5790 5791 5792 5793 5794 5794 5795 5795 5796 5796 5796 5796
5768 5768 5768 5768 5768 5767 5767 5766 5766 5765 5765 5764 5763 5763 5763 5763 5763 5764 5764 5765 5766 5767 5768 5769 5770 5772 5774 5775 5777 5778 5780 5781 5783 5783 5784 5785 5786 5787 5787 5788 5788 5788 5789
5760 5760 5760 5760 5759 5759 5758 5757 5756 5755 5755 5754 5753 5753 5753 5752 5753 5753 5753 5754 5755 5756 5757 5758 5759 5761 5763 5765 5767 5768 5770 5771 5773 5774 5775 5776 5776 5777 5778 5779 5779 5780 5780
5752 5752 5751 5751 5751 5750 5749 5748 5747 5746 5745 5744 5743 5743 5742 5742 5741 5741 5742 5743 5744 5744 5745 5746 5748 5750 5752 5754 5756 5758 5759 5761 5762 5763 5764 5765 5766 5767 5768 5769 5770 5770 5771
5744 5744 5743 5743 5742 5741 5740 5739 5738 5736 5735 5734 5733 5733 5732 5731 5731 5730 5730 5731 5732 5733 5734 5735 5736 5738 5740 5742 5744 5746 5748 5749 5751 5752 5753 5754 5755 5756 5757 5758 5759 5760 5761
5735 5735 5735 5734 5733 5732 5731 5730 5728 5727 5725 5724 5723 5722 5721 5720 5719 5719 5718 5719 5719 5720 5721 5723 5724 5725 5727 5729 5731 5733 5736 5737 5739 5740 5742 5743 5744 5745 5746 5747 5748 5749 5750
5727 5727 5726 5725 5724 5723 5722 5720 5719 5717 5715 5714 5713 5711 5710 5708 5707 5706 5706 5706 5706 5707 5708 5709 5711 5712 5714 5716 5718 5720 5723 5725 5726 5728 5729 5731 5732 5733 5734 5735 5736 5737 5738
5719 5718 5717 5716 5715 5713 5712 5711 5709 5708 5706 5704 5702 5700 5698 5696 5695 5694 5693 5693 5693 5694 5695 5696 5697 5699 5701 5702 5704 5707 5710 5712 5713 5715 5716 5718 5719 5720 5722 5723 5723 5724 5726
5710 5708 5707 5706 5705 5704 5702 5701 5699 5697 5695 5693 5691 5689 5686 5684 5682 5680 5680 5679 5679 5680 5681 5682 5683 5685 5686 5688 5690 5693 5696 5699 5700 5702 5703 5704 5706 5707 5708 5709 5710 5711 5712
5701 5699 5697 5696 5695 5694 5692 5691 5689 5687 5684 5682 5680 5677 5675 5672 5669 5667 5665 5665 5664 5665 5666 5667 5669 5671 5673 5675 5675 5677 5680 5684 5687 5689 5690 5691 5692 5693 5694 5695 5696 5696 5698
5692 5690 5688 5687 5686 5684 5682 5681 5678 5676 5674 5671 5669 5666 5663 5660 5657 5654 5652 5650 5650 5651 5652 5653 5655 5657 5658 5660 5661 5663 5665 5667 5670 5674 5677 5678 5678 5679 5680 5681 5682 5683 5684
5684 5682 5680 5678 5676 5674 5672 5670 5668 5665 5663 5660 5658 5655 5652 5649 5645 5642 5639 5637 5636 5637 5638 5639 5641 5643 5644 5645 5647 5649 5651 5653 5655 5657 5661 5664 5665 5666 5667 5668 5668 5669 5670
5675 5673 5671 5669 5667 5665 5662 5660 5658 5655 5652 5649 5646 5643 5640 5637 5634 5630 5628 5626 5625 5624 5625 5627 5628 5630 5630 5632 5633 5635 5637 5639 5642 5644 5647 5650 5652 5653 5654 5655 5655 5656 5658
Wind_Speed
18 18 18 19 19 19 19 18 18 18 17 17 17 17 17 16 16 16 16 16 16 15 15 15 15 14 14 14 14 14 14 13 13 12 13 12 12 12 12 12 12 12 12
20 20 20 20 20 20 20 19 19 19 19 18 18 18 18 18 18 18 18 18 18 17 17 17 16 16 16 16 16 16 15 15 14 14 14 13 14 13 14 14 14 14 14
21 22 22 21 21 21 21 20 20 20 20 20 20 20 20 20 20 20 20 20 20 19 19 18 18 18 18 18 18 17 17 16 16 16 15 15 15 15 15 15 15 15 15
22 22 22 22 22 21 21 21 21 21 22 22 22 22 22 22 22 22 22 22 22 22 21 21 20 20 20 19 19 19 19 18 18 18 17 17 17 17 17 17 17 17 17
22 22 22 23 23 23 23 23 23 23 23 24 24 25 25 25 25 25 24 24 24 24 24 24 23 23 22 22 22 21 21 21 20 20 20 19 19 19 19 20 19 19 19
23 23 23 24 24 24 24 24 25 25 26 26 26 27 27 27 27 27 27 26 26 26 25 26 26 25 25 24 24 24 24 23 23 22 22 22 21 20 20 21 21 21 21
25 25 25 25 26 26 26 26 26 27 27 28 28 28 29 29 29 29 29 29 28 28 28 27 27 27 27 26 26 26 26 26 25 24 23 23 23 23 22 22 23 23 23
26 26 26 26 27 28 28 29 29 29 30 30 30 30 30 31 31 32 31 31 31 30 30 29 29 28 28 28 28 28 28 28 27 27 26 25 25 24 24 24 24 25 25
27 27 28 28 29 29 30 31 31 31 32 32 32 33 33 33 34 34 34 34 33 33 32 32 32 31 31 30 30 30 30 29 29 29 28 27 26 26 26 26 25 26 26
28 29 29 30 30 30 31 32 32 32 33 34 34 35 35 35 36 36 37 36 36 36 35 35 34 34 33 32 32 32 31 30 30 30 30 29 28 28 28 27 27 27 27
30 30 31 31 32 32 32 33 33 34 35 35 36 36 37 37 38 38 38 38 38 38 38 38 37 37 36 35 34 34 33 32 31 31 31 31 30 29 29 29 29 29 28
31 32 32 33 33 34 35 35 36 37 37 38 38 38 39 39 40 40 40 40 39 40 40 40 39 38 38 37 37 36 36 35 34 33 32 32 32 32 31 31 30 30 30
32 32 33 34 35 36 37 37 38 39 39 40 40 41 40 40 41 41 42 42 42 42 41 41 41 41 40 39 39 39 38 37 36 35 35 34 34 34 33 33 32 31 31
33 33 35 36 37 38 39 39 40 40 41 41 41 42 42 41 41 41 42 42 43 43 44 43 43 43 42 41 41 40 40 39 38 37 37 36 36 35 35 34 34 33 33
34 35 36 37 38 39 40 40 41 41 42 42 42 42 42 42 42 42 43 43 44 45 45 45 46 45 44 43 43 42 42 41 40 39 39 39 39 38 37 36 36 36 36
35 36 36 37 37 38 38 39 39 40 40 41 41 41 42 43 43 44 44 45 45 46 46 46 47 47 46 46 45 44 43 43 42 42 42 41 41 41 40 39 39 38 38
34 34 35 35 36 37 37 38 38 39 39 40 40 41 42 43 44 45 45 45 45 46 47 47 47 48 48 47 47 46 46 45 44 44 44 44 44 43 42 41 41 41 40
33 33 34 35 35 36 37 38 38 38 39 40 40 41 43 44 45 45 45 46 47 47 48 48 48 48 48 48 49 48 48 47 47 46 46 46 45 44 43 42 42 43 42
33 33 34 34 35 36 36 37 38 39 39 40 40 41 43 44 45 46 46 47 47 48 49 49 49 49 49 49 50 49 49 49 49 48 48 48 47 46 46 45 45 45 45
33 34 34 35 35 36 36 37 38 39 39 40 41 42 43 44 45 46 46 47 48 49 49 50 50 50 50 50 50 50 50 50 50 50 49 49 49 48 48 47 47 47 47
33 34 35 35 35 36 36 37 37 38 39 40 41 42 43 43 44 45 46 47 48 49 49 50 51 51 51 51 51 50 50 51 50 50 50 50 50 50 49 49 49 49 49
33 34 34 35 35 36 36 36 36 37 39 40 41 42 43 44 44 46 47 48 49 49 49 50 51 50 50 51 51 51 51 51 51 50 51 51 51 51 51 51 50 50 50
33 33 34 35 35 36 36 36 37 38 39 40 41 42 43 43 44 45 47 47 48 48 49 49 49 49 50 50 52 52 52 53 52 51 51 51 51 51 51 51 50 51 50
33 34 34 35 35 35 36 36 37 38 38 39 40 41 41 41 42 43 44 45 46 47 47 47 48 49 50 50 51 52 52 52 53 52 51 51 50 50 50 50 50 51 51
32 33 34 34 34 34 36 36 37 37 38 38 39 40 40 41 41 41 42 42 43 44 45 46 47 47 48 48 49 50 50 50 51 50 49 49 49 48 48 49 50 50 50
31 32 33 33 34 34 35 36 36 37 37 37 38 39 39 39 40 39 38 38 38 40 42 43 44 45 46 47 46 47 47 48 48 47 47 47 47 46 46 47 48 49 48
Wind_Direction
250 251 250 251 253 254 254 256 257 258 260 260 260 260 262 263 264 265 267 267 268 269 271 274 278 279 280 281 283 287 289 289 289 290 287 286 288 292 295 297 298 298 299
249 250 251 252 253 253 255 257 258 259 261 262 262 262 262 263 264 265 267 268 268 269 269 271 274 276 275 276 278 281 285 285 284 284 284 284 284 285 287 290 293 294 295
249 250 252 253 255 255 256 257 259 260 261 262 263 264 263 263 264 265 266 266 267 269 270 271 272 273 274 274 276 278 279 282 282 281 280 280 281 281 282 284 287 290 292
249 250 252 254 256 256 257 259 260 261 262 263 264 265 265 264 264 265 265 265 266 267 268 269 270 272 274 275 276 277 278 279 280 280 280 279 280 280 279 280 282 285 288
251 251 252 254 256 257 259 260 262 263 263 263 264 264 265 265 265 265 266 267 267 267 267 268 270 271 273 275 275 276 277 277 278 278 278 278 279 280 280 280 281 283 285
253 254 255 256 257 259 261 262 262 264 264 264 265 265 265 265 265 266 267 268 268 268 268 267 268 270 271 272 274 274 275 276 276 277 277 277 278 279 281 281 281 282 283
256 257 258 259 260 262 262 263 263 264 265 265 265 265 266 266 266 266 266 267 268 268 268 268 268 268 269 270 272 272 273 274 274 275 275 275 277 277 279 281 281 282 282
257 259 260 261 262 264 265 265 265 265 266 267 266 266 266 266 266 266 266 266 266 267 268 267 267 267 268 270 270 271 270 272 271 272 273 273 274 276 277 279 280 280 281
259 260 261 262 263 265 266 266 266 267 267 267 267 267 266 266 266 266 266 266 266 266 266 267 267 266 267 268 269 269 270 269 269 270 271 272 273 274 275 277 278 279 280
260 261 263 264 266 266 267 267 267 267 267 268 268 267 267 266 266 266 266 266 266 266 266 267 267 267 267 267 268 268 269 270 269 269 269 270 272 272 274 276 277 278 279
261 262 264 265 266 267 268 268 268 269 269 268 268 268 268 267 267 267 267 266 266 266 266 266 267 267 267 267 267 267 268 269 269 269 269 269 270 271 272 274 275 276 277
262 263 265 266 268 269 269 269 269 270 269 269 269 269 268 268 267 267 267 266 265 265 266 266 266 266 266 266 267 267 267 268 269 269 269 270 270 270 271 272 274 274 275
264 265 267 268 269 270 270 270 270 270 271 271 270 270 269 268 267 267 266 265 264 265 265 265 265 265 265 265 266 266 266 267 267 268 268 269 271 270 270 271 272 273 274
265 267 268 269 270 270 271 271 272 271 271 271 271 270 269 268 267 267 266 266 265 264 264 264 264 263 264 265 265 265 265 265 265 266 268 268 269 270 269 270 271 272 273
267 268 269 270 271 272 272 272 272 272 272 272 271 270 269 268 267 266 265 265 265 265 265 264 264 262 263 264 264 265 265 265 264 265 267 268 268 269 269 269 270 271 272
269 269 269 271 272 273 273 274 274 273 273 273 272 271 269 268 268 266 264 264 265 264 264 264 264 262 262 262 263 264 265 264 264 265 266 267 267 268 268 268 268 270 272
270 270 271 272 273 274 275 275 275 274 274 274 273 272 271 270 269 268 266 265 265 265 264 264 264 263 263 262 262 262 263 264 263 264 265 266 266 266 266 267 267 268 270
271 272 273 274 274 275 275 275 275 276 275 274 273 272 271 270 269 269 268 266 265 264 264 264 264 264 263 261 261 262 263 263 263 264 265 266 266 265 266 266 267 268 269
273 273 274 274 274 275 275 275 276 276 276 275 274 273 272 271 270 270 268 267 266 265 264 264 264 264 264 263 262 261 262 262 262 263 265 265 266 267 266 266 266 268 268
274 275 275 275 275 275 276 277 277 277 277 277 276 275 274 273 271 270 268 267 266 265 264 264 264 264 264 263 262 261 261 263 262 263 264 265 266 267 267 267 266 267 268
276 276 276 276 276 276 277 278 278 279 279 278 277 276 276 274 273 271 270 269 268 266 265 265 265 264 264 263 262 261 262 263 263 263 263 264 265 266 267 267 267 267 267
277 277 277 277 277 278 278 279 280 280 279 278 278 278 278 277 275 274 272 272 270 267 267 266 264 264 264 264 262 262 261 262 262 262 263 265 266 266 267 267 267 267 267
278 278 277 277 279 279 279 279 281 282 281 279 279 279 280 281 279 276 274 272 271 268 267 266 265 264 264 263 263 263 263 263 263 262 263 264 265 266 266 267 267 268 267
279 279 279 280 281 281 281 281 283 283 282 281 280 280 281 282 283 279 276 273 271 269 267 265 264 264 265 265 264 264 264 265 265 264 263 264 265 265 266 267 267 268 267
279 280 281 282 282 282 282 283 284 284 283 282 282 281 282 283 284 283 279 276 273 270 268 266 264 265 265 265 265 265 265 266 265 266 265 265 265 266 267 267 268 268 268
281 282 282 283 283 283 284 284 285 285 284 283 284 284 284 284 284 283 281 279 276 273 269 268 266 265 265 266 266 266 265 265 266 266 266 266 266 267 267 268 268 269 267